Regional Weather Roundup
Issued by NWS

Home | Current Version | Previous Version | Text Only | Print | Product List | Glossary Off
Versions: 1 2 3 4 5 6 7 8 9 10 11 12 13 14 15 16 17 18 19 20 21 22 23 24 25 26 27 28 29 30 31 32 33 34 35 36 37 38 39 40 41 42 43 44 45 46 47 48 49 50

000
ASUS43 KLMK 200410
RWRKY
SDFRWRKY ALL
KENTUCKY REGIONAL WEATHER ROUNDUP
NATIONAL WEATHER SERVICE LOUISVILLE KY
1100 PM EST SUN NOV 19 2017

NOTE "FAIR" INDICATES FEW OR NO CLOUDS BELOW 12,000 FEET
WITH NO SIGNIFICANT WEATHER AND/OR OBSTRUCTIONS TO VISIBILITY.

KYZ001>023-026-027-061>063-070>075-200500-
WESTERN AND SOUTH CENTRAL KENTUCKY

CITY           SKY/WX    TMP DP  RH WIND       PRES   REMARKS
PADUCAH        CLEAR     28  23  81 CALM      30.24S
HENDERSON      CLEAR     27  24  89 SW3       30.24S
OWENSBORO      CLEAR     29  24  82 CALM      30.24R
HOPKINSVILLE   CLEAR     31  22  69 CALM      30.24S
BOWLING GREEN  CLEAR     32  24  72 CALM      30.25R
GLASGOW        CLEAR     27  26  99 CALM      30.23S
$$

KYZ024-025-028>034-038-045-046-053-200500-
NORTH CENTRAL KENTUCKY

CITY           SKY/WX    TMP DP  RH WIND       PRES   REMARKS
LOUISVILLE/SDF CLEAR     31  22  69 W7        30.21S WCI  24
LOUISVILLE/LOU CLEAR     31  24  75 SW3       30.22S
FORT KNOX      CLEAR     27  22  80 CALM      30.19S
$$

KYZ035>037-039>044-047>052-055>060-089>105-200500-
NORTHEAST KENTUCKY

CITY           SKY/WX    TMP DP  RH WIND       PRES   REMARKS
LEXINGTON      CLEAR     29  23  78 W5        30.19S WCI  24
COVINGTON      CLEAR     29  24  82 W5        30.16S WCI  24
FRANKFORT      CLEAR     29  22  75 SW3       30.18F
$$

KYZ054-064>069-076>088-106>120-200500-
SOUTHEAST KENTUCKY

CITY           SKY/WX    TMP DP  RH WIND       PRES   REMARKS
JACKSON        CLEAR     31  26  82 SW6       30.17R WCI  25
LONDON         CLEAR     30  26  85 CALM      30.20R
SOMERSET       CLEAR     28  28 100 CALM      30.22S
MIDDLESBORO    CLEAR     30  28  93 CALM      30.22R
MONTICELLO     CLEAR     24  22  91 NW8       30.24R WCI  15
$$





USA.gov is the U.S. government's official web portal to all federal, state and local government web resources and services.